Regional Weather Roundup
Issued by NWS Charleston, SC

Current Version | Previous Version | Graphics & Text | Print | Product List | Glossary On
Versions: 1 2 3 4 5 6 7 8 9 10 11 12 13 14 15 16 17 18 19 20 21 22 23 24 25 26 27 28 29 30 31 32 33 34 35 36 37 38 39 40 41 42 43 44 45 46 47 48 49 50
685 ASUS42 KCHS 231227 RWRCHS REGIONAL WEATHER ROUNDUP NATIONAL WEATHER SERVICE CHARLESTON SC 700 AM EST MON JAN 23 2017 NOTE: "FAIR" INDICATES FEW OR NO CLOUDS BELOW 12,000 FEET WITH NO SIGNIFICANT WEATHER AND/OR OBSTRUCTIONS TO VISIBILITY. NOT ALL STATIONS ARE QUALITY CONTROLLED. USE DATA WITH CAUTION... ESPECIALLY DEWPOINT OBSERVATIONS. SCZ027-030-031-034>040-042>050-231300- ...SOUTHEAST SOUTH CAROLINA... CITY SKY/WX TMP DP RH WIND PRES REMARKS N CHARLESTON PTCLDY 52 48 86 S6 29.30R 6HR MIN TEMP: 50; 6HR MAX TEMP: 58; WATERFRONT PRK N/A 57 52 83 SW9 29.30S MOUNT PLEASANT FAIR 55 50 82 S9 29.31S JOHNS ISLAND FAIR 55 50 82 SW6 29.32R PINOPOLIS N/A 52 50 93 SE5 29.22S MONCKS CORNER FAIR 48 46 93 S5 29.30S SUMMERVILLE FAIR N/A N/A N/A SE3 29.30R BEAUFORT MCAS PTCLDY 55 49 80 S8 29.30R 6HR MIN TEMP: 50; 6HR MAX TEMP: 58; BEAUFORT ARPT FAIR 54 48 82 SW9 29.30F HILTON HEAD IS PTCLDY 55 48 76 SW10 29.32S WALTERBORO MOSUNNY 50 48 93 S7 29.30S ALLENDALE LGT RAIN 52 50 93 VRB3 29.26S ...SOUTHERN MIDLANDS AND PEE DEE... CITY SKY/WX TMP DP RH WIND PRES REMARKS GEORGETOWN FAIR 48 48 100 S3 29.32S KINGSTREE FAIR 50 46 87 SE6 29.29S ORANGEBURG PTCLDY 50 48 93 S8 29.27R 6HR MIN TEMP: 49; 6HR MAX TEMP: 56; BARNWELL LGT RAIN 52 50 93 SW3 29.26S AIKEN LGT RAIN 46 46 100 S7 29.28R MANNING FAIR 46 32 57 SE5 29.28S COLUMBIA CLOUDY 50 47 89 SE5 29.24R 6HR MIN TEMP: 49; 6HR MAX TEMP: 58; SUMTER CLEAR 47 46 95 CALM 29.25R 6HR MIN TEMP: 46; 6HR MAX TEMP: 62; FLORENCE CLEAR 50 48 93 S7 29.28S 6HR MIN TEMP: 50; 6HR MAX TEMP: 62; 6HR PCP: 0.31; MYRTLE BEACH CLEAR 52 45 76 SW8 29.33R N MYRTLE BEACH CLEAR 49 47 93 SW7 29.31R 6HR MIN TEMP: 49; 6HR MAX TEMP: 64; $$ GAZ063-065-086>088-099>101-113>116-118-119-134>141-150-231300- ...SOUTHEAST GEORGIA... CITY SKY/WX TMP DP RH WIND PRES REMARKS SAVANNAH ARPT MOCLDY 52 48 86 S9 29.31S 6HR MIN TEMP: 52; 6HR MAX TEMP: 57; HUNTER AAF PTCLDY 53 53 99 VRB7 29.28F 6HR MIN TEMP: 53; 6HR MAX TEMP: 56; FORT STEWART MOCLDY 53 47 80 VRB7 29.28F 6HR MIN TEMP: 52; 6HR MAX TEMP: 56; STATESBORO LGT RAIN 53 51 92 S7 29.28R SYLVANIA LGT RAIN N/A N/A N/A SW3 29.28R CLAXTON LGT RAIN N/A N/A N/A S3 29.28S ...CSRA...CENTRAL AND FAR SOUTHEAST GEORGIA... CITY SKY/WX TMP DP RH WIND PRES REMARKS THOMSON CLOUDY 51 51 100 CALM 29.28S AUGUSTA-BUSH LGT RAIN 52 48 86 SW7 29.25R 6HR MIN TEMP: 50; 6HR MAX TEMP: 54; 6HR PCP: 0.02; AUGUSTA-DANIEL LGT RAIN 51 46 83 SW5 29.25R SWAINSBORO RAIN 50 50 100 SW6 29.26S VIDALIA LGT RAIN 52 52 100 SW9 29.27S EASTMAN DRIZZLE 52 51 97 SW9G18 29.28S HAZLEHURST CLOUDY 53 51 93 SW10G20 29.28R ALMA CLOUDY 52 48 86 SW14 29.30F 6HR MIN TEMP: 51; 6HR MAX TEMP: 57; WAYCROSS LGT RAIN 55 53 90 SW15 29.33S JESUP DRIZZLE 54 46 76 SW6 29.32S BAXLEY RAIN 54 52 94 SW6 29.30R BRUNSWICK CLEAR 54 50 87 SW9G17 29.35S SAINT SIMONS CLEAR 55 49 80 SW15 29.34F 6HR MIN TEMP: 55; 6HR MAX TEMP: 59; $$ SCZ027-028-034-036>038-045-046-048>050-GAZ119-141-231300- ...LAKE AND SUPPLEMENTAL COASTAL OBSERVATIONS... STATION/POSITION TIME TEMP WIND PRES WAVE SWELL AIR SEA DIR/SP/G HT/PER HT/PER/DIR (UTC) (F) (DEG/KT/KT) (MB) (FT/S) (FT/S/D) WINYAH BAY 1130 51 260/ 1 992.0S LAKE MURRAY 1120 52 230/ 5/ 7 989.8R ACE BASIN NERRS 1145 55 220/ 3 992.0S FORT PULASKI 1200 56 59 220/ 9/ 13 992.7 SAPELO ISLAND 1200 55 220/ 12 993.0 $$ ANZ835-935-AMZ111-154-330-350-352-354-370-450-454-472-231300- ...C-MAN AND BUOY OBSERVATIONS... STATION/POSITION TIME TEMP WIND PRES WAVE SWELL AIR SEA DIR/SP/G HT/PER HT/PER/DIR (UTC) (F) (DEG/KT/KT) (MB) (FT/S) (FT/S/D) BUOY 41004 1150 64 67 230/ 19/ 25 992.2F 9/ 8 5/180/10 BUOY 41008 1150 59 60 220/ 23/ 27 992.7R 4/ 5 2/130/ 7 FOLLY BEACH CMAN 1200 58 220/ 16/ 18 993.1R CAPERS NEARSHORE 1108 57 56 200/ 10/ 14 992.3F FRIPP NEARSHORE 1208 58 58 240/ 17/ 21 992.8R STATION/POSITION TIME TEMP WIND PRES WAVE SWELL AIR SEA DIR/SP/G HT/PER HT/PER/DIR (UTC) (F) (DEG/KT/KT) (MB) (FT/S) (FT/S/D) 5E ST. MARYS GA 1200 62 N/A 3/ 6 2/ 90/13 FRYING PAN BUOY 1210 63 69 240/ 16/ 19 993.6 BUOY 41025 1150 72 72 220/ 23/ 31 990.5F 9/ 7 3/ 80/12 CAPE LOOKOUT NC 1200 60 220/ 11/ 15 991.4R BUOY 41002 1150 68 71 180/ 21/ 25 996.6F 16/10 11/190/10 BUOY 41010 NOT AVBL ST AUGUSTINE FL 1200 57 64 220/ 6/ 8 996.8R $$

USA.gov is the U.S. government's official web portal to all federal, state and local government web resources and services.